Skip Page Navigation
NASA JPL Caltech
NASA Logo - Jet Propulsion Laboratory + View the NASA Portal
+ Center for Near-Earth Object Studies
JPL Home Earth Solar System Stars & Galaxies Technology
JPL Solar System Dynamics
BODIES ORBITS EPHEMERIDES TOOLS PHYSICAL DATA DISCOVERY FAQ SITE MAP
IMPORTANT: The SSD Announcement email list is now available. Major changes are coming in the near future, including possible hostname and/or URL changes. To be notified of such changes, subscribe to this email list.

Please visit this page for more details.


JPL Small-Body Database Browser
Search: [ help ]  
675 Ludmilla (A908 QH)
Classification: Main-belt Asteroid          SPK-ID: 2000675
Ephemeris | Orbit Diagram | Orbital Elements | Mission Design | Physical Parameters | Discovery Circumstances | Close-Approach Data ]

[ show orbit diagram ]
Orbital Elements at Epoch 2459000.5 (2020-May-31.0) TDB
Reference: JPL 45 (heliocentric ecliptic J2000)
 Element Value Uncertainty (1-sigma)   Units 
e .2038738867725314 3.9235e-08  
a 2.769385666866599 9.3404e-09 au
q 2.204780246990367 1.0934e-07 au
i 9.804322408472846 4.6606e-06 deg
node 263.0271381385453 2.5094e-05 deg
peri 152.7091542619792 2.7239e-05 deg
M 38.02333473527463 1.1136e-05 deg
tp 2458822.704285322296
(2019-Dec-05.20428532)
5.1775e-05 TDB
period 1683.346758762697
4.61
8.5162e-06
2.332e-08
d
yr
n .2138596805001777 1.0819e-09 deg/d
Q 3.333991086742831 1.1245e-08 au
  Orbit Determination Parameters
   # obs. used (total)      2430  
   data-arc span      37422 days (102.46 yr)  
   first obs. used      1917-08-18  
   last obs. used      2020-02-01  
   planetary ephem.      DE431  
   SB-pert. ephem.      SB431-N16  
   condition code      0  
   norm. resid. RMS      .43409  
   source      ORB  
   producer      Otto Matic  
   solution date      2020-Feb-22 15:33:49  

Additional Information
 Earth MOID = 1.22215 au 
 Jupiter MOID = 2.03147 au 
 T_jup = 3.286 
[ show covariance matrix ]

Ephemeris | Orbit Diagram | Orbital Elements | Mission Design | Physical Parameters | Discovery Circumstances | Close-Approach Data ]

Physical Parameter Table
Parameter Symbol Value Units Sigma Reference Notes
absolute magnitude H 8.1   n/a MPO502159  
diameter diameter 76 km n/a DASTCOM value unverified
rotation period rot_per 7.717 h n/a LCDB (Rev. 2019-August); Warner et al., 2009 Published Reference List:
[Schober, H.J.; Dvorak, R. (1975) Astron. Astrophys. 44, 81-84.]
[Chang, Y.C.; Zhou, X.-h.; Yang, X.-y.; Zhang, Y.-y.; et al. (1981) Acta Astron. Sin. 22, 169-173; Chin. Astron. Astrophys. 5, 434-437.]
[Velichko, F.P.; Michalowski, T.; Erikson, A.; Krugly, Yu.N.; et al. (1995) Astron. Astrophys. Suppl. Ser. 110, 125-129.]
[Torppa, J.; Kaasalainen, M.; Michalowski, T.; Kwiatkowski, T.; et al. (2003) Icarus 164, 346-383.]
[Behrend, R. (2005) Observatoire de Geneve web site, http://obswww.unige.ch/~behrend/page_cou.html]
[Menke, J. (2005) Minor Planet Bull. 32, 64-66.]
[Durech, J. (2011) Database of Asteroid Models from Inversion Techniques (DAMIT). http://astro.troja.mff.cuni.cz/projects/asteroids3D/web.php]
B-V BV 0.847   0.035 EAR-A-5-DDR-UBV-MEAN-VALUES-V1.2 #obs=1; phase=9.02 deg.
U-B UB 0.444   0.055 EAR-A-5-DDR-UBV-MEAN-VALUES-V1.2 #obs=1; phase=9.02 deg.
Tholen spectral type spec_T S   n/a EAR-A-5-DDR-TAXONOMY-V4.0 used 7 color indices
SMASSII spectral type spec_B S   n/a EAR-A-5-DDR-TAXONOMY-V4.0 based on a high-resolution spectrum by Xu et al. (1995) or Bus and Binzel (2002)

675 Ludmilla (A908 QH)          Discovered 1908-Aug-30 by Metcalf, J. H. at Taunton
Reference: DISCOVERY.DBLast Updated: 2003-08-29

[ show close-approach data ]
Alternate Designations
 A908 QH = A910 CH 
Ephemeris | Orbit Diagram | Orbital Elements | Mission Design | Physical Parameters | Discovery Circumstances | Close-Approach Data ]
ABOUT SSD CREDITS/AWARDS PRIVACY/COPYRIGHT GLOSSARY LINKS
FirstGov 2020-Apr-07 08:21 UT
(server date/time)  
NASA Home Page
Site Manager:   Ryan S. Park
Webmaster  Alan B. Chamberlin